Time,TemperatureF,DewpointF,PressureIn,WindDirection,WindDirectionDegrees,WindSpeedMPH,WindSpeedGustMPH,Humidity,HourlyPrecipIn,Conditions,Clouds,dailyrainin,SoftwareType,DateUTC
2013-07-04 00:01:00,68.8,53.4,29.95,South,178,0.0,0.0,58,0.00,,,0.00,vanprod-2.3,2013-07-04 05:01:00,
2013-07-04 00:06:00,68.6,53.3,29.95,South,178,0.0,0.0,58,0.00,,,0.00,vanprod-2.3,2013-07-04 05:06:00,
2013-07-04 00:11:00,68.4,53.1,29.95,South,178,0.0,0.0,58,0.00,,,0.00,vanprod-2.3,2013-07-04 05:11:00,
2013-07-04 00:16:00,68.3,53.4,29.95,South,178,0.0,0.0,59,0.00,,,0.00,vanprod-2.3,2013-07-04 05:16:00,
2013-07-04 00:21:00,68.1,52.8,29.95,South,178,0.0,0.0,58,0.00,,,0.00,vanprod-2.3,2013-07-04 05:21:00,
2013-07-04 00:26:00,68.1,52.8,29.95,South,178,0.0,0.0,58,0.00,,,0.00,vanprod-2.3,2013-07-04 05:26:00,
2013-07-04 00:31:00,67.9,53.1,29.95,South,178,0.0,0.0,59,0.00,,,0.00,vanprod-2.3,2013-07-04 05:31:00,
2013-07-04 00:36:00,67.8,53.0,29.94,South,178,0.0,0.0,59,0.00,,,0.00,vanprod-2.3,2013-07-04 05:36:00,
2013-07-04 00:41:00,67.8,53.0,29.94,South,178,0.0,0.0,59,0.00,,,0.00,vanprod-2.3,2013-07-04 05:41:00,
2013-07-04 00:46:00,67.6,53.2,29.94,South,178,0.0,0.0,60,0.00,,,0.00,vanprod-2.3,2013-07-04 05:46:00,
2013-07-04 00:51:00,67.4,53.0,29.94,South,178,0.0,0.0,60,0.00,,,0.00,vanprod-2.3,2013-07-04 05:51:00,
2013-07-04 00:56:00,67.3,53.0,29.94,South,178,0.0,3.0,60,0.00,,,0.00,vanprod-2.3,2013-07-04 05:56:00,
2013-07-04 01:01:00,67.3,53.4,29.94,South,178,0.0,0.0,61,0.00,,,0.00,vanprod-2.3,2013-07-04 06:01:00,
2013-07-04 01:06:00,67.1,53.2,29.94,South,178,0.0,0.0,61,0.00,,,0.00,vanprod-2.3,2013-07-04 06:06:00,
2013-07-04 01:11:00,67.1,53.7,29.93,South,178,0.0,0.0,62,0.00,,,0.00,vanprod-2.3,2013-07-04 06:11:00,
2013-07-04 01:16:00,67.1,54.1,29.93,South,178,0.0,1.0,63,0.00,,,0.00,vanprod-2.3,2013-07-04 06:16:00,
2013-07-04 01:21:00,67.1,54.1,29.93,South,178,0.0,1.0,63,0.00,,,0.00,vanprod-2.3,2013-07-04 06:21:00,
2013-07-04 01:26:00,67.1,54.5,29.93,South,178,0.0,0.0,64,0.00,,,0.00,vanprod-2.3,2013-07-04 06:26:00,
2013-07-04 01:31:00,66.9,54.3,29.93,South,178,0.0,0.0,64,0.00,,,0.00,vanprod-2.3,2013-07-04 06:31:00,
2013-07-04 01:36:00,66.9,54.8,29.93,South,178,0.0,0.0,65,0.00,,,0.00,vanprod-2.3,2013-07-04 06:36:00,
2013-07-04 01:41:00,66.9,54.3,29.93,South,178,0.0,0.0,64,0.00,,,0.00,vanprod-2.3,2013-07-04 06:41:00,
2013-07-04 01:46:00,66.8,54.7,29.93,South,178,0.0,0.0,65,0.00,,,0.00,vanprod-2.3,2013-07-04 06:46:00,
2013-07-04 01:51:00,66.8,54.2,29.93,South,178,0.0,0.0,64,0.00,,,0.00,vanprod-2.3,2013-07-04 06:51:00,
2013-07-04 01:56:00,66.8,54.7,29.93,South,178,0.0,0.0,65,0.00,,,0.00,vanprod-2.3,2013-07-04 06:56:00,
2013-07-04 02:01:00,66.8,54.7,29.93,South,178,0.0,0.0,65,0.00,,,0.00,vanprod-2.3,2013-07-04 07:01:00,
2013-07-04 02:06:00,66.8,54.2,29.93,South,178,1.0,3.0,64,0.00,,,0.00,vanprod-2.3,2013-07-04 07:06:00,
2013-07-04 02:11:00,66.6,54.1,29.93,South,178,0.0,1.0,64,0.00,,,0.00,vanprod-2.3,2013-07-04 07:11:00,
2013-07-04 02:16:00,66.6,54.5,29.93,South,178,0.0,0.0,65,0.00,,,0.00,vanprod-2.3,2013-07-04 07:16:00,
2013-07-04 02:21:00,66.4,53.9,29.93,South,178,0.0,0.0,64,0.00,,,0.00,vanprod-2.3,2013-07-04 07:21:00,
2013-07-04 02:26:00,66.3,54.2,29.93,South,178,0.0,0.0,65,0.00,,,0.00,vanprod-2.3,2013-07-04 07:26:00,
2013-07-04 02:31:00,66.3,54.2,29.93,South,178,0.0,0.0,65,0.00,,,0.00,vanprod-2.3,2013-07-04 07:31:00,
2013-07-04 02:36:00,66.1,54.4,29.93,South,178,0.0,0.0,66,0.00,,,0.00,vanprod-2.3,2013-07-04 07:36:00,
2013-07-04 02:41:00,65.9,53.8,29.92,South,178,0.0,2.0,65,0.00,,,0.00,vanprod-2.3,2013-07-04 07:41:00,
2013-07-04 02:46:00,65.9,54.2,29.93,South,178,0.0,0.0,66,0.00,,,0.00,vanprod-2.3,2013-07-04 07:46:00,
2013-07-04 02:51:00,65.8,54.1,29.92,South,178,0.0,0.0,66,0.00,,,0.00,vanprod-2.3,2013-07-04 07:51:00,
2013-07-04 02:56:00,65.8,54.1,29.92,South,178,0.0,0.0,66,0.00,,,0.00,vanprod-2.3,2013-07-04 07:56:00,
2013-07-04 03:01:00,65.6,54.4,29.92,South,178,0.0,0.0,67,0.00,,,0.00,vanprod-2.3,2013-07-04 08:01:00,
2013-07-04 03:06:00,65.5,54.3,29.92,South,178,0.0,0.0,67,0.00,,,0.00,vanprod-2.3,2013-07-04 08:06:00,
2013-07-04 03:11:00,65.5,53.9,29.92,South,178,0.0,0.0,66,0.00,,,0.00,vanprod-2.3,2013-07-04 08:11:00,
2013-07-04 03:16:00,65.5,53.9,29.92,South,178,0.0,0.0,66,0.00,,,0.00,vanprod-2.3,2013-07-04 08:16:00,
2013-07-04 03:21:00,65.3,53.7,29.92,South,178,0.0,0.0,66,0.00,,,0.00,vanprod-2.3,2013-07-04 08:21:00,
2013-07-04 03:26:00,65.3,54.1,29.92,South,178,0.0,0.0,67,0.00,,,0.00,vanprod-2.3,2013-07-04 08:26:00,
2013-07-04 03:31:00,65.1,54.3,29.92,South,178,0.0,0.0,68,0.00,,,0.00,vanprod-2.3,2013-07-04 08:31:00,
2013-07-04 03:36:00,65.1,53.9,29.92,South,178,0.0,0.0,67,0.00,,,0.00,vanprod-2.3,2013-07-04 08:36:00,
2013-07-04 03:41:00,65.0,53.8,29.92,South,178,0.0,0.0,67,0.00,,,0.00,vanprod-2.3,2013-07-04 08:41:00,
2013-07-04 03:46:00,65.0,53.8,29.92,South,178,0.0,0.0,67,0.00,,,0.00,vanprod-2.3,2013-07-04 08:46:00,
2013-07-04 03:51:00,64.8,54.0,29.92,South,178,1.0,0.0,68,0.00,,,0.00,vanprod-2.3,2013-07-04 08:51:00,
2013-07-04 03:56:00,64.8,54.0,29.92,South,178,0.0,1.0,68,0.00,,,0.00,vanprod-2.3,2013-07-04 08:56:00,
2013-07-04 04:01:00,64.7,53.9,29.92,South,178,0.0,0.0,68,0.00,,,0.00,vanprod-2.3,2013-07-04 09:01:00,
2013-07-04 04:06:00,64.7,53.9,29.92,South,178,0.0,0.0,68,0.00,,,0.00,vanprod-2.3,2013-07-04 09:06:00,
2013-07-04 04:11:00,64.5,54.1,29.93,South,178,0.0,1.0,69,0.00,,,0.00,vanprod-2.3,2013-07-04 09:11:00,
2013-07-04 04:16:00,64.3,54.3,29.92,South,178,0.0,1.0,70,0.00,,,0.00,vanprod-2.3,2013-07-04 09:16:00,
2013-07-04 04:21:00,64.2,54.2,29.92,South,178,1.0,0.0,70,0.00,,,0.00,vanprod-2.3,2013-07-04 09:21:00,
2013-07-04 04:26:00,64.0,54.4,29.92,South,178,0.0,0.0,71,0.00,,,0.00,vanprod-2.3,2013-07-04 09:26:00,
2013-07-04 04:31:00,64.0,54.8,29.92,South,178,0.0,0.0,72,0.00,,,0.00,vanprod-2.3,2013-07-04 09:31:00,
2013-07-04 04:36:00,63.8,54.6,29.92,South,178,0.0,0.0,72,0.00,,,0.00,vanprod-2.3,2013-07-04 09:36:00,
2013-07-04 04:41:00,63.8,55.0,29.92,South,178,0.0,0.0,73,0.00,,,0.00,vanprod-2.3,2013-07-04 09:41:00,
2013-07-04 04:46:00,63.7,55.3,29.92,South,178,0.0,0.0,74,0.00,,,0.00,vanprod-2.3,2013-07-04 09:46:00,
2013-07-04 04:51:00,63.7,55.3,29.92,South,178,0.0,0.0,74,0.00,,,0.00,vanprod-2.3,2013-07-04 09:51:00,
2013-07-04 04:56:00,63.7,55.3,29.92,South,178,0.0,0.0,74,0.00,,,0.00,vanprod-2.3,2013-07-04 09:56:00,
2013-07-04 05:01:00,63.7,55.6,29.92,South,178,0.0,0.0,75,0.00,,,0.00,vanprod-2.3,2013-07-04 10:01:00,
2013-07-04 05:06:00,63.7,55.6,29.92,South,178,0.0,0.0,75,0.00,,,0.00,vanprod-2.3,2013-07-04 10:06:00,
2013-07-04 05:11:00,63.7,56.0,29.92,South,178,0.0,0.0,76,0.00,,,0.00,vanprod-2.3,2013-07-04 10:11:00,
2013-07-04 05:16:00,63.7,56.0,29.92,South,178,0.0,1.0,76,0.00,,,0.00,vanprod-2.3,2013-07-04 10:16:00,
2013-07-04 05:21:00,63.7,56.4,29.92,South,178,0.0,1.0,77,0.00,,,0.00,vanprod-2.3,2013-07-04 10:21:00,
2013-07-04 05:26:00,63.5,56.2,29.92,South,178,0.0,0.0,77,0.00,,,0.00,vanprod-2.3,2013-07-04 10:26:00,
2013-07-04 05:31:00,63.5,56.2,29.92,South,178,0.0,0.0,77,0.00,,,0.00,vanprod-2.3,2013-07-04 10:31:00,
2013-07-04 05:36:00,63.5,56.5,29.92,South,178,0.0,0.0,78,0.00,,,0.00,vanprod-2.3,2013-07-04 10:36:00,
2013-07-04 05:41:00,63.4,56.4,29.92,South,178,0.0,0.0,78,0.00,,,0.00,vanprod-2.3,2013-07-04 10:41:00,
2013-07-04 05:46:00,63.4,56.4,29.92,South,178,0.0,0.0,78,0.00,,,0.00,vanprod-2.3,2013-07-04 10:46:00,
2013-07-04 05:51:00,63.2,56.2,29.92,South,178,0.0,0.0,78,0.00,,,0.00,vanprod-2.3,2013-07-04 10:51:00,
2013-07-04 05:56:00,63.2,56.6,29.92,South,178,0.0,1.0,79,0.00,,,0.00,vanprod-2.3,2013-07-04 10:56:00,
2013-07-04 06:01:00,63.2,56.6,29.92,South,178,0.0,0.0,79,0.00,,,0.00,vanprod-2.3,2013-07-04 11:01:00,
2013-07-04 06:06:00,63.0,56.4,29.92,South,178,0.0,0.0,79,0.00,,,0.00,vanprod-2.3,2013-07-04 11:06:00,
2013-07-04 06:11:00,63.0,56.7,29.92,South,178,0.0,0.0,80,0.00,,,0.00,vanprod-2.3,2013-07-04 11:11:00,
2013-07-04 06:16:00,63.0,56.7,29.92,South,178,0.0,0.0,80,0.00,,,0.00,vanprod-2.3,2013-07-04 11:16:00,
2013-07-04 06:21:00,62.9,56.6,29.92,South,178,0.0,0.0,80,0.00,,,0.00,vanprod-2.3,2013-07-04 11:21:00,
2013-07-04 06:26:00,63.0,56.7,29.92,South,178,0.0,0.0,80,0.00,,,0.00,vanprod-2.3,2013-07-04 11:26:00,
2013-07-04 06:31:00,63.2,56.9,29.92,South,178,0.0,0.0,80,0.00,,,0.00,vanprod-2.3,2013-07-04 11:31:00,
2013-07-04 06:36:00,63.4,57.1,29.92,South,178,0.0,0.0,80,0.00,,,0.00,vanprod-2.3,2013-07-04 11:36:00,
2013-07-04 06:41:00,63.5,56.9,29.92,South,178,0.0,0.0,79,0.00,,,0.00,vanprod-2.3,2013-07-04 11:41:00,
2013-07-04 06:46:00,63.5,56.9,29.92,South,178,0.0,0.0,79,0.00,,,0.00,vanprod-2.3,2013-07-04 11:46:00,
2013-07-04 06:51:00,63.7,57.1,29.92,South,178,0.0,0.0,79,0.00,,,0.00,vanprod-2.3,2013-07-04 11:51:00,
2013-07-04 06:56:00,63.8,57.2,29.92,South,178,0.0,0.0,79,0.00,,,0.00,vanprod-2.3,2013-07-04 11:56:00,
2013-07-04 07:01:00,63.8,57.2,29.92,South,178,0.0,0.0,79,0.00,,,0.00,vanprod-2.3,2013-07-04 12:01:00,
2013-07-04 07:06:00,64.0,57.4,29.92,South,178,0.0,0.0,79,0.00,,,0.00,vanprod-2.3,2013-07-04 12:06:00,
2013-07-04 07:11:00,64.3,57.3,29.92,South,178,0.0,0.0,78,0.00,,,0.00,vanprod-2.3,2013-07-04 12:11:00,
2013-07-04 07:16:00,64.5,57.5,29.92,South,178,0.0,1.0,78,0.00,,,0.00,vanprod-2.3,2013-07-04 12:16:00,
2013-07-04 07:21:00,64.7,57.7,29.92,South,178,0.0,0.0,78,0.00,,,0.00,vanprod-2.3,2013-07-04 12:21:00,
2013-07-04 07:26:00,64.8,57.8,29.91,South,178,1.0,1.0,78,0.00,,,0.00,vanprod-2.3,2013-07-04 12:26:00,
2013-07-04 07:31:00,65.1,58.1,29.91,South,178,0.0,0.0,78,0.00,,,0.00,vanprod-2.3,2013-07-04 12:31:00,
2013-07-04 07:36:00,65.3,57.9,29.92,South,178,0.0,0.0,77,0.00,,,0.00,vanprod-2.3,2013-07-04 12:36:00,
2013-07-04 07:41:00,65.6,57.8,29.92,South,178,1.0,2.0,76,0.00,,,0.00,vanprod-2.3,2013-07-04 12:41:00,
2013-07-04 07:46:00,66.1,58.3,29.91,South,178,0.0,0.0,76,0.00,,,0.00,vanprod-2.3,2013-07-04 12:46:00,
2013-07-04 07:51:00,66.4,58.2,29.92,South,178,1.0,5.0,75,0.00,,,0.00,vanprod-2.3,2013-07-04 12:51:00,
2013-07-04 07:56:00,66.9,58.4,29.92,South,178,2.0,2.0,74,0.00,,,0.00,vanprod-2.3,2013-07-04 12:56:00,
2013-07-04 08:01:00,67.4,58.8,29.92,South,178,1.0,0.0,74,0.00,,,0.00,vanprod-2.3,2013-07-04 13:01:00,
2013-07-04 08:06:00,68.1,59.1,29.92,South,178,1.0,0.0,73,0.00,,,0.00,vanprod-2.3,2013-07-04 13:06:00,
2013-07-04 08:11:00,68.6,59.2,29.92,South,178,1.0,3.0,72,0.00,,,0.00,vanprod-2.3,2013-07-04 13:11:00,
2013-07-04 08:16:00,68.9,59.1,29.92,South,178,0.0,0.0,71,0.00,,,0.00,vanprod-2.3,2013-07-04 13:16:00,
2013-07-04 08:21:00,69.3,59.9,29.92,South,178,0.0,0.0,72,0.00,,,0.00,vanprod-2.3,2013-07-04 13:21:00,
2013-07-04 08:26:00,69.8,60.0,29.91,South,178,1.0,3.0,71,0.00,,,0.00,vanprod-2.3,2013-07-04 13:26:00,
2013-07-04 08:31:00,70.3,59.7,29.91,South,178,1.0,0.0,69,0.00,,,0.00,vanprod-2.3,2013-07-04 13:31:00,
2013-07-04 08:36:00,70.6,59.5,29.91,South,178,1.0,0.0,68,0.00,,,0.00,vanprod-2.3,2013-07-04 13:36:00,
2013-07-04 08:41:00,71.0,59.9,29.91,South,178,1.0,0.0,68,0.00,,,0.00,vanprod-2.3,2013-07-04 13:41:00,
2013-07-04 08:46:00,71.3,59.8,29.91,South,178,0.0,0.0,67,0.00,,,0.00,vanprod-2.3,2013-07-04 13:46:00,
2013-07-04 08:51:00,71.5,59.6,29.91,South,178,1.0,4.0,66,0.00,,,0.00,vanprod-2.3,2013-07-04 13:51:00,
2013-07-04 08:56:00,71.6,59.7,29.91,South,178,2.0,2.0,66,0.00,,,0.00,vanprod-2.3,2013-07-04 13:56:00,
2013-07-04 09:01:00,72.0,59.6,29.90,South,178,2.0,5.0,65,0.00,,,0.00,vanprod-2.3,2013-07-04 14:01:00,
2013-07-04 09:06:00,72.5,59.6,29.90,South,176,2.0,0.0,64,0.00,,,0.00,vanprod-2.3,2013-07-04 14:06:00,
2013-07-04 09:11:00,73.0,59.7,29.90,South,176,1.0,1.0,63,0.00,,,0.00,vanprod-2.3,2013-07-04 14:11:00,
2013-07-04 09:16:00,73.2,59.9,29.90,South,176,1.0,2.0,63,0.00,,,0.00,vanprod-2.3,2013-07-04 14:16:00,
2013-07-04 09:21:00,73.5,59.2,29.90,South,176,2.0,7.0,61,0.00,,,0.00,vanprod-2.3,2013-07-04 14:21:00,
2013-07-04 09:26:00,74.1,58.9,29.90,South,176,3.0,3.0,59,0.00,,,0.00,vanprod-2.3,2013-07-04 14:26:00,
2013-07-04 09:31:00,74.6,59.8,29.90,South,176,0.0,1.0,60,0.00,,,0.00,vanprod-2.3,2013-07-04 14:31:00,
2013-07-04 09:36:00,75.1,59.3,29.90,South,176,2.0,5.0,58,0.00,,,0.00,vanprod-2.3,2013-07-04 14:36:00,
2013-07-04 09:41:00,75.3,59.0,29.90,South,175,2.0,4.0,57,0.00,,,0.00,vanprod-2.3,2013-07-04 14:41:00,
2013-07-04 09:46:00,75.6,58.8,29.90,South,175,1.0,1.0,56,0.00,,,0.00,vanprod-2.3,2013-07-04 14:46:00,
2013-07-04 09:51:00,76.0,59.2,29.90,South,175,3.0,3.0,56,0.00,,,0.00,vanprod-2.3,2013-07-04 14:51:00,
2013-07-04 09:56:00,76.5,59.1,29.90,South,175,2.0,2.0,55,0.00,,,0.00,vanprod-2.3,2013-07-04 14:56:00,
2013-07-04 10:01:00,76.9,59.5,29.90,South,175,2.0,12.0,55,0.00,,,0.00,vanprod-2.3,2013-07-04 15:01:00,
2013-07-04 10:06:00,77.1,57.6,29.90,South,178,4.0,7.0,51,0.00,,,0.00,vanprod-2.3,2013-07-04 15:06:00,
2013-07-04 10:11:00,77.2,58.2,29.90,South,178,2.0,5.0,52,0.00,,,0.00,vanprod-2.3,2013-07-04 15:11:00,
2013-07-04 10:16:00,77.6,58.6,29.90,South,178,1.0,3.0,52,0.00,,,0.00,vanprod-2.3,2013-07-04 15:16:00,
2013-07-04 10:21:00,78.1,58.5,29.89,South,178,1.0,6.0,51,0.00,,,0.00,vanprod-2.3,2013-07-04 15:21:00,
2013-07-04 10:26:00,78.5,58.9,29.89,South,178,2.0,5.0,51,0.00,,,0.00,vanprod-2.3,2013-07-04 15:26:00,
2013-07-04 10:31:00,78.5,58.3,29.89,South,176,3.0,5.0,50,0.00,,,0.00,vanprod-2.3,2013-07-04 15:31:00,
2013-07-04 10:36:00,78.7,59.1,29.89,South,176,2.0,5.0,51,0.00,,,0.00,vanprod-2.3,2013-07-04 15:36:00,
2013-07-04 10:41:00,79.1,60.0,29.89,South,176,2.0,2.0,52,0.00,,,0.00,vanprod-2.3,2013-07-04 15:41:00,
2013-07-04 10:46:00,79.4,58.6,29.89,South,181,3.0,3.0,49,0.00,,,0.00,vanprod-2.3,2013-07-04 15:46:00,
2013-07-04 10:51:00,79.8,59.0,29.89,South,181,3.0,5.0,49,0.00,,,0.00,vanprod-2.3,2013-07-04 15:51:00,
2013-07-04 10:56:00,80.2,58.8,29.88,South,179,3.0,8.0,48,0.00,,,0.00,vanprod-2.3,2013-07-04 15:56:00,
2013-07-04 11:01:00,80.4,58.3,29.88,South,179,3.0,5.0,47,0.00,,,0.00,vanprod-2.3,2013-07-04 16:01:00,
2013-07-04 11:06:00,80.9,58.8,29.88,South,184,3.0,5.0,47,0.00,,,0.00,vanprod-2.3,2013-07-04 16:06:00,
2013-07-04 11:11:00,81.1,58.4,29.88,South,184,3.0,3.0,46,0.00,,,0.00,vanprod-2.3,2013-07-04 16:11:00,
2013-07-04 11:16:00,81.5,59.3,29.88,South,184,1.0,1.0,47,0.00,,,0.00,vanprod-2.3,2013-07-04 16:16:00,
2013-07-04 11:21:00,82.1,59.3,29.88,South,182,3.0,4.0,46,0.00,,,0.00,vanprod-2.3,2013-07-04 16:21:00,
2013-07-04 11:26:00,82.5,59.0,29.87,South,182,3.0,3.0,45,0.00,,,0.00,vanprod-2.3,2013-07-04 16:26:00,
2013-07-04 11:31:00,82.7,57.3,29.87,South,182,5.0,5.0,42,0.00,,,0.00,vanprod-2.3,2013-07-04 16:31:00,
2013-07-04 11:36:00,83.1,59.0,29.87,South,180,4.0,6.0,44,0.00,,,0.00,vanprod-2.3,2013-07-04 16:36:00,
2013-07-04 11:41:00,83.5,58.7,29.87,South,178,2.0,4.0,43,0.00,,,0.00,vanprod-2.3,2013-07-04 16:41:00,
2013-07-04 11:46:00,83.8,57.6,29.87,South,178,5.0,6.0,41,0.00,,,0.00,vanprod-2.3,2013-07-04 16:46:00,
2013-07-04 11:51:00,83.8,58.3,29.87,South,182,4.0,7.0,42,0.00,,,0.00,vanprod-2.3,2013-07-04 16:51:00,
2013-07-04 11:56:00,84.0,56.4,29.87,SSW,209,5.0,6.0,39,0.00,,,0.00,vanprod-2.3,2013-07-04 16:56:00,
2013-07-04 12:01:00,84.2,55.9,29.87,SSW,200,6.0,11.0,38,0.00,,,0.00,vanprod-2.3,2013-07-04 17:01:00,
2013-07-04 12:06:00,84.0,55.7,29.87,South,172,5.0,12.0,38,0.00,,,0.00,vanprod-2.3,2013-07-04 17:06:00,
2013-07-04 12:11:00,84.4,56.8,29.87,SSW,196,4.0,4.0,39,0.00,,,0.00,vanprod-2.3,2013-07-04 17:11:00,
2013-07-04 12:16:00,84.8,57.8,29.86,SSW,196,3.0,6.0,40,0.00,,,0.00,vanprod-2.3,2013-07-04 17:16:00,
2013-07-04 12:21:00,85.4,57.7,29.86,SSW,199,4.0,8.0,39,0.00,,,0.00,vanprod-2.3,2013-07-04 17:21:00,
2013-07-04 12:26:00,85.6,54.8,29.86,SSW,195,4.0,6.0,35,0.00,,,0.00,vanprod-2.3,2013-07-04 17:26:00,
2013-07-04 12:31:00,85.2,54.5,29.86,SSW,201,6.0,11.0,35,0.00,,,0.00,vanprod-2.3,2013-07-04 17:31:00,
2013-07-04 12:36:00,85.8,56.5,29.86,SSW,210,2.0,10.0,37,0.00,,,0.00,vanprod-2.3,2013-07-04 17:36:00,
2013-07-04 12:41:00,85.6,54.8,29.86,South,178,6.0,14.0,35,0.00,,,0.00,vanprod-2.3,2013-07-04 17:41:00,
2013-07-04 12:46:00,85.6,54.8,29.86,South,172,4.0,11.0,35,0.00,,,0.00,vanprod-2.3,2013-07-04 17:46:00,
2013-07-04 12:51:00,86.0,56.0,29.86,South,169,3.0,6.0,36,0.00,,,0.00,vanprod-2.3,2013-07-04 17:51:00,
2013-07-04 12:56:00,86.2,56.1,29.86,South,173,4.0,7.0,36,0.00,,,0.00,vanprod-2.3,2013-07-04 17:56:00,
2013-07-04 13:01:00,86.5,54.8,29.86,South,177,4.0,10.0,34,0.00,,,0.00,vanprod-2.3,2013-07-04 18:01:00,
2013-07-04 13:06:00,86.5,54.8,29.86,South,185,4.0,7.0,34,0.00,,,0.00,vanprod-2.3,2013-07-04 18:06:00,
2013-07-04 13:11:00,86.9,54.4,29.86,South,182,4.0,10.0,33,0.00,,,0.00,vanprod-2.3,2013-07-04 18:11:00,
2013-07-04 13:16:00,86.9,55.2,29.86,SW,234,4.0,10.0,34,0.00,,,0.00,vanprod-2.3,2013-07-04 18:16:00,
2013-07-04 13:21:00,86.9,52.7,29.85,South,190,7.0,15.0,31,0.00,,,0.00,vanprod-2.3,2013-07-04 18:21:00,
2013-07-04 13:26:00,86.7,55.0,29.85,South,169,4.0,15.0,34,0.00,,,0.00,vanprod-2.3,2013-07-04 18:26:00,
2013-07-04 13:31:00,86.9,54.4,29.85,SSE,168,4.0,9.0,33,0.00,,,0.00,vanprod-2.3,2013-07-04 18:31:00,
2013-07-04 13:36:00,87.1,56.2,29.85,SSW,208,2.0,4.0,35,0.00,,,0.00,vanprod-2.3,2013-07-04 18:36:00,
2013-07-04 13:41:00,87.5,55.7,29.85,SSW,205,2.0,5.0,34,0.00,,,0.00,vanprod-2.3,2013-07-04 18:41:00,
2013-07-04 13:46:00,87.9,56.9,29.85,SSE,168,3.0,3.0,35,0.00,,,0.00,vanprod-2.3,2013-07-04 18:46:00,
2013-07-04 13:51:00,88.1,56.2,29.84,SSW,208,3.0,3.0,34,0.00,,,0.00,vanprod-2.3,2013-07-04 18:51:00,
2013-07-04 13:56:00,87.9,53.5,29.84,South,175,5.0,14.0,31,0.00,,,0.00,vanprod-2.3,2013-07-04 18:56:00,
2013-07-04 14:01:00,87.3,53.9,29.84,South,174,6.0,11.0,32,0.00,,,0.00,vanprod-2.3,2013-07-04 19:01:00,
2013-07-04 14:06:00,87.7,54.2,29.84,South,173,4.0,8.0,32,0.00,,,0.00,vanprod-2.3,2013-07-04 19:06:00,
2013-07-04 14:11:00,87.9,54.4,29.84,South,169,3.0,7.0,32,0.00,,,0.00,vanprod-2.3,2013-07-04 19:11:00,
2013-07-04 14:16:00,87.7,54.2,29.84,SSE,163,4.0,8.0,32,0.00,,,0.00,vanprod-2.3,2013-07-04 19:16:00,
2013-07-04 14:21:00,87.7,54.2,29.84,South,176,4.0,4.0,32,0.00,,,0.00,vanprod-2.3,2013-07-04 19:21:00,
2013-07-04 14:26:00,87.9,54.4,29.84,SSE,167,5.0,12.0,32,0.00,,,0.00,vanprod-2.3,2013-07-04 19:26:00,
2013-07-04 14:31:00,87.9,55.2,29.84,SSW,209,2.0,3.0,33,0.00,,,0.00,vanprod-2.3,2013-07-04 19:31:00,
2013-07-04 14:36:00,88.1,54.6,29.84,SSE,168,2.0,7.0,32,0.00,,,0.00,vanprod-2.3,2013-07-04 19:36:00,
2013-07-04 14:41:00,88.1,54.6,29.84,WSW,245,4.0,6.0,32,0.00,,,0.00,vanprod-2.3,2013-07-04 19:41:00,
2013-07-04 14:46:00,88.1,55.4,29.84,South,174,6.0,8.0,33,0.00,,,0.00,vanprod-2.3,2013-07-04 19:46:00,
2013-07-04 14:51:00,88.1,54.6,29.84,South,191,5.0,12.0,32,0.00,,,0.00,vanprod-2.3,2013-07-04 19:51:00,
2013-07-04 14:56:00,88.1,53.7,29.84,SSW,193,4.0,7.0,31,0.00,,,0.00,vanprod-2.3,2013-07-04 19:56:00,
2013-07-04 15:01:00,87.9,53.5,29.84,SSE,168,6.0,6.0,31,0.00,,,0.00,vanprod-2.3,2013-07-04 20:01:00,
2013-07-04 15:06:00,88.3,57.2,29.84,South,176,2.0,5.0,35,0.00,,,0.00,vanprod-2.3,2013-07-04 20:06:00,
2013-07-04 15:11:00,88.3,55.6,29.84,SSE,166,6.0,10.0,33,0.00,,,0.00,vanprod-2.3,2013-07-04 20:11:00,
2013-07-04 15:16:00,88.1,56.2,29.84,SSW,211,6.0,8.0,34,0.00,,,0.00,vanprod-2.3,2013-07-04 20:16:00,
2013-07-04 15:21:00,88.1,56.2,29.84,SSW,205,5.0,8.0,34,0.00,,,0.00,vanprod-2.3,2013-07-04 20:21:00,
2013-07-04 15:26:00,87.9,55.2,29.84,SSE,166,3.0,8.0,33,0.00,,,0.00,vanprod-2.3,2013-07-04 20:26:00,
2013-07-04 15:31:00,87.7,56.7,29.84,SSE,167,6.0,7.0,35,0.00,,,0.00,vanprod-2.3,2013-07-04 20:31:00,
2013-07-04 15:36:00,87.7,57.5,29.84,SSE,156,4.0,8.0,36,0.00,,,0.00,vanprod-2.3,2013-07-04 20:36:00,
2013-07-04 15:41:00,87.5,54.9,29.83,South,189,4.0,6.0,33,0.00,,,0.00,vanprod-2.3,2013-07-04 20:41:00,
2013-07-04 15:46:00,87.9,55.2,29.83,South,185,5.0,12.0,33,0.00,,,0.00,vanprod-2.3,2013-07-04 20:46:00,
2013-07-04 15:51:00,88.1,56.2,29.84,SSW,200,4.0,13.0,34,0.00,,,0.00,vanprod-2.3,2013-07-04 20:51:00,
2013-07-04 15:56:00,88.1,57.0,29.83,South,171,5.0,5.0,35,0.00,,,0.00,vanprod-2.3,2013-07-04 20:56:00,
2013-07-04 16:01:00,88.3,55.6,29.83,South,186,6.0,11.0,33,0.00,,,0.00,vanprod-2.3,2013-07-04 21:01:00,
2013-07-04 16:06:00,88.1,55.4,29.83,SSW,194,8.0,20.0,33,0.00,,,0.00,vanprod-2.3,2013-07-04 21:06:00,
2013-07-04 16:11:00,88.3,57.2,29.83,SSE,166,3.0,6.0,35,0.00,,,0.00,vanprod-2.3,2013-07-04 21:11:00,
2013-07-04 16:16:00,88.5,58.9,29.83,SSE,167,4.0,12.0,37,0.00,,,0.00,vanprod-2.3,2013-07-04 21:16:00,
2013-07-04 16:21:00,88.3,57.2,29.83,South,183,6.0,6.0,35,0.00,,,0.00,vanprod-2.3,2013-07-04 21:21:00,
2013-07-04 16:26:00,87.7,56.7,29.83,South,169,4.0,4.0,35,0.00,,,0.00,vanprod-2.3,2013-07-04 21:26:00,
2013-07-04 16:31:00,87.9,56.9,29.82,SW,220,3.0,8.0,35,0.00,,,0.00,vanprod-2.3,2013-07-04 21:31:00,
2013-07-04 16:36:00,87.9,56.9,29.83,SSE,157,6.0,7.0,35,0.00,,,0.00,vanprod-2.3,2013-07-04 21:36:00,
2013-07-04 16:41:00,87.7,56.7,29.83,South,171,4.0,8.0,35,0.00,,,0.00,vanprod-2.3,2013-07-04 21:41:00,
2013-07-04 16:46:00,87.5,56.5,29.82,SSE,161,3.0,9.0,35,0.00,,,0.00,vanprod-2.3,2013-07-04 21:46:00,
2013-07-04 16:51:00,87.3,58.6,29.82,SSW,206,4.0,6.0,38,0.00,,,0.00,vanprod-2.3,2013-07-04 21:51:00,
2013-07-04 16:56:00,87.5,57.3,29.82,South,185,6.0,11.0,36,0.00,,,0.00,vanprod-2.3,2013-07-04 21:56:00,
2013-07-04 17:01:00,87.7,59.0,29.82,SSW,192,4.0,10.0,38,0.00,,,0.00,vanprod-2.3,2013-07-04 22:01:00,
2013-07-04 17:06:00,87.9,59.9,29.82,SW,229,1.0,2.0,39,0.00,,,0.00,vanprod-2.3,2013-07-04 22:06:00,
2013-07-04 17:11:00,87.7,58.2,29.82,South,182,5.0,13.0,37,0.00,,,0.00,vanprod-2.3,2013-07-04 22:11:00,
2013-07-04 17:16:00,87.5,57.3,29.82,South,174,6.0,12.0,36,0.00,,,0.00,vanprod-2.3,2013-07-04 22:16:00,
2013-07-04 17:21:00,87.3,58.6,29.82,South,178,4.0,7.0,38,0.00,,,0.00,vanprod-2.3,2013-07-04 22:21:00,
2013-07-04 17:26:00,87.1,59.2,29.82,SSW,199,2.0,5.0,39,0.00,,,0.00,vanprod-2.3,2013-07-04 22:26:00,
2013-07-04 17:31:00,87.1,59.2,29.82,South,172,3.0,7.0,39,0.00,,,0.00,vanprod-2.3,2013-07-04 22:31:00,
2013-07-04 17:36:00,87.1,59.2,29.82,SSE,167,6.0,13.0,39,0.00,,,0.00,vanprod-2.3,2013-07-04 22:36:00,
2013-07-04 17:41:00,87.1,59.9,29.82,South,178,3.0,4.0,40,0.00,,,0.00,vanprod-2.3,2013-07-04 22:41:00,
2013-07-04 17:46:00,87.1,59.9,29.82,South,178,1.0,5.0,40,0.00,,,0.00,vanprod-2.3,2013-07-04 22:46:00,
2013-07-04 17:51:00,86.7,58.8,29.82,South,174,5.0,6.0,39,0.00,,,0.00,vanprod-2.3,2013-07-04 22:51:00,
2013-07-04 17:56:00,86.7,60.2,29.82,SW,220,1.0,6.0,41,0.00,,,0.00,vanprod-2.3,2013-07-04 22:56:00,
2013-07-04 18:01:00,86.2,59.1,29.82,SSE,160,4.0,8.0,40,0.00,,,0.00,vanprod-2.3,2013-07-04 23:01:00,
2013-07-04 18:06:00,85.8,58.0,29.82,SSW,202,6.0,13.0,39,0.00,,,0.00,vanprod-2.3,2013-07-04 23:06:00,
2013-07-04 18:11:00,85.8,58.7,29.82,SW,225,3.0,6.0,40,0.00,,,0.00,vanprod-2.3,2013-07-04 23:11:00,
2013-07-04 18:16:00,86.0,58.9,29.82,SE,145,4.0,4.0,40,0.00,,,0.00,vanprod-2.3,2013-07-04 23:16:00,
2013-07-04 18:21:00,85.8,58.0,29.82,SSW,198,4.0,10.0,39,0.00,,,0.00,vanprod-2.3,2013-07-04 23:21:00,
2013-07-04 18:26:00,85.8,58.7,29.82,SSE,160,4.0,11.0,40,0.00,,,0.00,vanprod-2.3,2013-07-04 23:26:00,
2013-07-04 18:31:00,85.8,59.4,29.82,South,171,3.0,6.0,41,0.00,,,0.00,vanprod-2.3,2013-07-04 23:31:00,
2013-07-04 18:36:00,86.0,60.9,29.82,South,169,2.0,6.0,43,0.00,,,0.00,vanprod-2.3,2013-07-04 23:36:00,
2013-07-04 18:41:00,85.4,59.0,29.82,South,169,4.0,10.0,41,0.00,,,0.00,vanprod-2.3,2013-07-04 23:41:00,
2013-07-04 18:46:00,85.2,57.5,29.82,South,171,4.0,12.0,39,0.00,,,0.00,vanprod-2.3,2013-07-04 23:46:00,
2013-07-04 18:51:00,84.8,57.8,29.82,SW,223,2.0,6.0,40,0.00,,,0.00,vanprod-2.3,2013-07-04 23:51:00,
2013-07-04 18:56:00,84.6,58.3,29.82,SSW,200,3.0,4.0,41,0.00,,,0.00,vanprod-2.3,2013-07-04 23:56:00,
2013-07-04 19:01:00,84.4,58.2,29.82,South,189,4.0,7.0,41,0.00,,,0.00,vanprod-2.3,2013-07-05 00:01:00,
2013-07-04 19:06:00,84.4,58.2,29.82,SSE,155,4.0,5.0,41,0.00,,,0.00,vanprod-2.3,2013-07-05 00:06:00,
2013-07-04 19:11:00,84.4,58.2,29.81,South,176,5.0,6.0,41,0.00,,,0.00,vanprod-2.3,2013-07-05 00:11:00,
2013-07-04 19:16:00,84.2,58.0,29.81,SSE,152,7.0,8.0,41,0.00,,,0.00,vanprod-2.3,2013-07-05 00:16:00,
2013-07-04 19:21:00,84.0,58.5,29.81,SW,215,2.0,5.0,42,0.00,,,0.00,vanprod-2.3,2013-07-05 00:21:00,
2013-07-04 19:26:00,83.8,58.9,29.81,South,184,2.0,5.0,43,0.00,,,0.00,vanprod-2.3,2013-07-05 00:26:00,
2013-07-04 19:31:00,83.8,59.6,29.81,South,184,2.0,6.0,44,0.00,,,0.00,vanprod-2.3,2013-07-05 00:31:00,
2013-07-04 19:36:00,83.6,60.0,29.81,South,182,2.0,2.0,45,0.00,,,0.00,vanprod-2.3,2013-07-05 00:36:00,
2013-07-04 19:41:00,83.6,60.7,29.81,South,178,3.0,3.0,46,0.00,,,0.00,vanprod-2.3,2013-07-05 00:41:00,
2013-07-04 19:46:00,83.5,59.9,29.81,SSE,166,5.0,7.0,45,0.00,,,0.00,vanprod-2.3,2013-07-05 00:46:00,
2013-07-04 19:51:00,83.3,59.8,29.81,South,171,3.0,4.0,45,0.00,,,0.00,vanprod-2.3,2013-07-05 00:51:00,
2013-07-04 19:56:00,83.1,59.6,29.81,South,169,3.0,9.0,45,0.00,,,0.00,vanprod-2.3,2013-07-05 00:56:00,
2013-07-04 20:01:00,82.9,59.4,29.81,South,169,2.0,3.0,45,0.00,,,0.00,vanprod-2.3,2013-07-05 01:01:00,
2013-07-04 20:06:00,82.9,60.6,29.81,South,169,0.0,2.0,47,0.00,,,0.00,vanprod-2.3,2013-07-05 01:06:00,
2013-07-04 20:11:00,82.7,60.4,29.81,South,171,4.0,6.0,47,0.00,,,0.00,vanprod-2.3,2013-07-05 01:11:00,
2013-07-04 20:16:00,82.5,60.3,29.81,South,171,3.0,3.0,47,0.00,,,0.00,vanprod-2.3,2013-07-05 01:16:00,
2013-07-04 20:21:00,82.3,60.7,29.81,South,171,1.0,1.0,48,0.00,,,0.00,vanprod-2.3,2013-07-05 01:21:00,
2013-07-04 20:26:00,82.1,61.1,29.81,South,171,1.0,6.0,49,0.00,,,0.00,vanprod-2.3,2013-07-05 01:26:00,
2013-07-04 20:31:00,81.7,60.7,29.81,South,171,1.0,5.0,49,0.00,,,0.00,vanprod-2.3,2013-07-05 01:31:00,
2013-07-04 20:36:00,81.5,60.5,29.81,South,171,1.0,3.0,49,0.00,,,0.00,vanprod-2.3,2013-07-05 01:36:00,
2013-07-04 20:41:00,81.3,60.3,29.81,South,171,2.0,3.0,49,0.00,,,0.00,vanprod-2.3,2013-07-05 01:41:00,
2013-07-04 20:46:00,81.1,60.2,29.81,South,169,1.0,3.0,49,0.00,,,0.00,vanprod-2.3,2013-07-05 01:46:00,
2013-07-04 20:51:00,80.9,60.0,29.80,South,171,1.0,2.0,49,0.00,,,0.00,vanprod-2.3,2013-07-05 01:51:00,
2013-07-04 20:56:00,80.9,59.4,29.81,SSE,167,4.0,6.0,48,0.00,,,0.00,vanprod-2.3,2013-07-05 01:56:00,
2013-07-04 21:01:00,80.9,59.4,29.81,SSE,167,1.0,3.0,48,0.00,,,0.00,vanprod-2.3,2013-07-05 02:01:00,
2013-07-04 21:06:00,80.7,59.2,29.81,South,169,3.0,3.0,48,0.00,,,0.00,vanprod-2.3,2013-07-05 02:06:00,
2013-07-04 21:11:00,80.6,59.1,29.81,SSE,161,1.0,2.0,48,0.00,,,0.00,vanprod-2.3,2013-07-05 02:11:00,
2013-07-04 21:16:00,80.4,58.3,29.81,South,169,3.0,11.0,47,0.00,,,0.00,vanprod-2.3,2013-07-05 02:16:00,
2013-07-04 21:21:00,80.4,58.9,29.81,SSE,164,3.0,3.0,48,0.00,,,0.00,vanprod-2.3,2013-07-05 02:21:00,
2013-07-04 21:26:00,80.2,58.8,29.81,SSE,164,1.0,5.0,48,0.00,,,0.00,vanprod-2.3,2013-07-05 02:26:00,
2013-07-04 21:31:00,80.0,58.6,29.82,SSE,164,2.0,4.0,48,0.00,,,0.00,vanprod-2.3,2013-07-05 02:31:00,
2013-07-04 21:36:00,79.8,58.4,29.82,SSE,167,1.0,2.0,48,0.00,,,0.00,vanprod-2.3,2013-07-05 02:36:00,
2013-07-04 21:41:00,79.6,58.2,29.82,SSE,167,0.0,2.0,48,0.00,,,0.00,vanprod-2.3,2013-07-05 02:41:00,
2013-07-04 21:46:00,79.4,58.0,29.82,SSE,167,3.0,3.0,48,0.00,,,0.00,vanprod-2.3,2013-07-05 02:46:00,
2013-07-04 21:51:00,79.3,57.9,29.82,SSE,167,2.0,2.0,48,0.00,,,0.00,vanprod-2.3,2013-07-05 02:51:00,
2013-07-04 21:56:00,79.1,58.3,29.83,SSE,154,1.0,1.0,49,0.00,,,0.00,vanprod-2.3,2013-07-05 02:56:00,
2013-07-04 22:01:00,78.9,58.1,29.83,SSE,154,0.0,1.0,49,0.00,,,0.00,vanprod-2.3,2013-07-05 03:01:00,
2013-07-04 22:06:00,78.7,58.0,29.83,SSE,167,1.0,1.0,49,0.00,,,0.00,vanprod-2.3,2013-07-05 03:06:00,
2013-07-04 22:11:00,78.5,57.8,29.83,SSE,167,1.0,1.0,49,0.00,,,0.00,vanprod-2.3,2013-07-05 03:11:00,
2013-07-04 22:16:00,78.3,57.6,29.83,SSE,167,2.0,2.0,49,0.00,,,0.00,vanprod-2.3,2013-07-05 03:16:00,
2013-07-04 22:21:00,78.1,57.4,29.83,SSE,167,0.0,2.0,49,0.00,,,0.00,vanprod-2.3,2013-07-05 03:21:00,
2013-07-04 22:26:00,78.0,57.9,29.83,SSE,167,1.0,3.0,50,0.00,,,0.00,vanprod-2.3,2013-07-05 03:26:00,
2013-07-04 22:31:00,77.8,57.7,29.83,SSE,167,1.0,3.0,50,0.00,,,0.00,vanprod-2.3,2013-07-05 03:31:00,
2013-07-04 22:36:00,77.4,57.9,29.84,SSE,167,1.0,2.0,51,0.00,,,0.00,vanprod-2.3,2013-07-05 03:36:00,
2013-07-04 22:41:00,77.1,58.1,29.84,SSE,166,1.0,6.0,52,0.00,,,0.00,vanprod-2.3,2013-07-05 03:41:00,
2013-07-04 22:46:00,76.9,58.0,29.84,SSE,165,0.0,1.0,52,0.00,,,0.00,vanprod-2.3,2013-07-05 03:46:00,
2013-07-04 22:51:00,76.7,58.3,29.84,SSE,165,1.0,3.0,53,0.00,,,0.00,vanprod-2.3,2013-07-05 03:51:00,
2013-07-04 22:56:00,76.5,58.1,29.84,SSE,165,0.0,1.0,53,0.00,,,0.00,vanprod-2.3,2013-07-05 03:56:00,
2013-07-04 23:01:00,76.3,58.5,29.84,SSE,165,1.0,0.0,54,0.00,,,0.00,vanprod-2.3,2013-07-05 04:01:00,
2013-07-04 23:06:00,76.0,58.2,29.84,SSE,165,0.0,0.0,54,0.00,,,0.00,vanprod-2.3,2013-07-05 04:06:00,
2013-07-04 23:11:00,75.8,58.5,29.84,SSE,165,1.0,1.0,55,0.00,,,0.00,vanprod-2.3,2013-07-05 04:11:00,
2013-07-04 23:16:00,75.5,58.2,29.84,SSE,165,1.0,0.0,55,0.00,,,0.00,vanprod-2.3,2013-07-05 04:16:00,
2013-07-04 23:21:00,75.3,58.5,29.84,SSE,165,1.0,0.0,56,0.00,,,0.00,vanprod-2.3,2013-07-05 04:21:00,
2013-07-04 23:26:00,75.3,58.5,29.84,SSE,165,0.0,0.0,56,0.00,,,0.00,vanprod-2.3,2013-07-05 04:26:00,
2013-07-04 23:31:00,75.1,58.4,29.84,SSE,165,0.0,1.0,56,0.00,,,0.00,vanprod-2.3,2013-07-05 04:31:00,
2013-07-04 23:36:00,75.1,58.8,29.84,SSE,165,1.0,1.0,57,0.00,,,0.00,vanprod-2.3,2013-07-05 04:36:00,
2013-07-04 23:41:00,75.1,58.8,29.84,SSE,165,0.0,1.0,57,0.00,,,0.00,vanprod-2.3,2013-07-05 04:41:00,
2013-07-04 23:46:00,75.1,58.8,29.83,SSE,165,1.0,3.0,57,0.00,,,0.00,vanprod-2.3,2013-07-05 04:46:00,
2013-07-04 23:51:00,75.1,58.8,29.84,SSE,165,1.0,1.0,57,0.00,,,0.00,vanprod-2.3,2013-07-05 04:51:00,
2013-07-04 23:56:00,75.1,58.8,29.84,SSE,165,3.0,3.0,57,0.00,,,0.00,vanprod-2.3,2013-07-05 04:56:00,